Location: Go�ngahuizen
(53.0821°N, 5.8849°E)
Time: 13:33:17
(UTC+00:00)

SL-16 R/B - Pass Details

Date: 09 April 2020
Orbit: 842 x 846 km, 71.0° (Epoch: 02 June)

Event Time Altitude Azimuth Distance (km) Brightness Sun altitude
Rises 19:42:41 0° 322° (NW) 3,414 6.8 -11.4°
Reaches altitude 10° 19:46:07 10° 343° (NNW) 2,478 5.4 -11.8°
Maximum altitude 19:49:41 17° 22° (NNE) 2,040 4.3 -12.3°
Drops below altitude 10° 19:53:16 10° 61° (ENE) 2,476 4.4 -12.7°
Enters shadow 19:55:08 - 74° (ENE) 2,951 4.6 -13.0°
